Regional Weather Roundup
Issued by NWS

Home | Current Version | Previous Version | Graphics & Text | Print | Product List | Glossary On
Versions: 1 2 3 4 5 6 7 8 9 10 11 12 13 14 15 16 17 18 19 20 21 22 23 24 25 26 27 28 29 30 31 32 33 34 35 36 37 38 39 40 41 42 43 44 45 46 47 48 49 50
341
ASUS43 KBIS 231802
RWRND

NORTH DAKOTA REGIONAL WEATHER ROUNDUP
NATIONAL WEATHER SERVICE BISMARCK ND
1200 PM CST TUE JAN 23 2018

NOTE: "FAIR" INDICATES FEW OR NO CLOUDS BELOW 12,000 FEET WITH NO
SIGNIFICANT WEATHER AND/OR OBSTRUCTIONS TO VISIBILITY.


NDZ001>003-009>011-017-231900-
NORTHWEST NORTH DAKOTA

CITY           SKY/WX    TMP DP  RH WIND       PRES   REMARKS
WILLISTON      SUNNY     23  15  71 W7        30.13R WCI  15
6HR MIN TEMP:  12; 6HR MAX TEMP:  23;

MINOT          CLOUDY    20  17  88 NW14      30.09R WCI   7
MINOT AFB      CLOUDY    19  17  91 NW18      30.07S WCI   4
$$

NDZ018>021-031>035-040>046-231900-
SOUTHWEST NORTH DAKOTA

CITY           SKY/WX    TMP DP  RH WIND       PRES   REMARKS
BISMARCK       MOSUNNY   27  25  92 W6        30.10S
6HR MIN TEMP:  10; 6HR MAX TEMP:  27;

DICKINSON      SUNNY     31  21  66 W17       30.07S WCI  19
GARRISON         N/A     24  20  84 NW14      30.07S WCI  12
6HR MIN TEMP:   5; 6HR MAX TEMP:  24;

HETTINGER ARPT PTSUNNY   31  20  63 W20       30.11R WCI  19
$$

NDZ004>008-012>016-024-026-027-054-231900-
NORTHEAST NORTH DAKOTA

CITY           SKY/WX    TMP DP  RH WIND       PRES   REMARKS
GRAND FORKS    CLOUDY    22  19  89 SW8       30.10R WCI  12
GRND FRKS AFB  CLOUDY    21  19  90 S7        30.08S WCI  13
DEVILS LAKE    CLOUDY    19  17  92 W7        30.05S FOG     WCI  10
$$

NDZ022-023-025-028>030-036>039-047>053-231900-
SOUTHEAST NORTH DAKOTA

CITY           SKY/WX    TMP DP  RH WIND       PRES   REMARKS
FARGO          CLOUDY    21  17  84 S5        30.11F WCI  15
6HR MIN TEMP:  20; 6HR MAX TEMP:  21;

JAMESTOWN      PTSUNNY   23  20  88 W7        30.05S WCI  15
$$





USA.gov is the U.S. government's official web portal to all federal, state and local government web resources and services.